Wind_Speed
31 31 30 29 29 30 31 32 33 34 35 36 36 36 36 37 37 38 38 38 38 38 38 38 37 36 35 35 36 37 39 42 43 45 46 47 48 49 49 50 50 49 48 48 47 47 47 47 47 47 46 45 44 46 47 48 48 47 46 46 45 45 46 46 45 44 43 43 43 43 44 45 47 48 48 49 50 52 54 55 57 58 59 60 61
32 32 32 31 32 33 34 35 36 37 37 37 37 37 37 37 37 38 38 38 38 37 37 36 34 32 32 34 36 39 41 44 45 47 48 49 50 50 50 50 50 49 49 49 48 48 46 45 45 44 44 42 42 42 44 44 45 45 45 44 44 45 45 46 46 45 44 44 44 45 46 47 49 50 50 51 52 54 55 57 59 60 61 61 61
34 33 33 33 34 35 36 37 38 39 39 38 38 38 37 37 38 38 38 38 38 37 35 32 30 30 32 35 38 41 43 45 47 49 50 51 52 51 50 50 49 49 49 48 48 46 45 43 42 42 41 40 39 40 41 42 43 43 44 44 45 45 45 46 46 46 46 46 47 47 48 50 50 51 52 53 54 56 57 59 60 61 62 62 61
35 35 35 36 36 37 39 39 40 40 39 39 38 38 38 38 38 38 38 37 37 35 32 29 30 32 34 37 39 42 45 47 48 50 50 51 50 49 48 47 46 47 47 48 47 46 45 43 42 42 42 41 40 39 40 42 43 43 44 44 45 46 46 46 47 47 48 48 49 50 51 51 52 53 53 54 56 57 59 61 62 62 62 62 62
36 37 37 38 38 39 40 41 42 41 39 39 38 38 38 38 38 38 37 37 35 32 29 29 31 33 35 38 41 43 45 46 48 48 48 47 46 45 44 44 43 44 45 46 46 45 44 43 43 43 42 42 41 42 42 43 44 44 44 45 46 48 48 48 49 49 49 50 51 52 52 52 53 54 55 56 57 59 61 62 63 62 62 63 63
38 38 39 39 40 41 42 43 42 41 40 39 38 38 38 37 37 37 36 36 33 31 30 31 33 34 36 39 41 43 44 45 46 46 46 45 44 43 43 43 43 43 43 44 44 44 44 43 44 43 43 44 44 45 45 45 45 45 45 46 48 49 50 50 51 51 51 51 52 53 53 53 54 55 56 57 59 61 63 63 63 63 63 63 64
40 40 40 40 41 43 44 44 42 41 40 39 38 37 37 37 36 36 36 34 32 31 32 33 34 35 37 40 41 42 42 43 44 44 44 43 43 42 42 43 43 43 43 43 43 43 43 44 44 44 45 45 46 46 46 46 46 46 46 48 49 49 50 51 51 51 51 52 52 53 54 54 55 56 57 59 61 63 64 65 65 64 64 64 64
40 41 40 41 43 44 45 43 42 41 39 38 37 37 37 36 36 35 35 33 33 33 34 34 35 36 39 40 40 40 41 42 42 42 42 42 41 41 42 42 42 42 42 42 42 43 44 44 44 45 45 45 46 47 47 47 47 47 48 49 50 50 51 51 51 52 52 53 54 54 55 56 57 58 59 61 63 65 66 66 66 65 65 65 65
41 41 41 42 44 45 44 43 41 40 39 38 38 37 37 36 35 35 35 34 34 35 35 35 36 38 39 39 38 39 40 40 40 41 41 41 41 41 41 41 41 41 41 42 42 42 43 43 44 45 45 46 46 47 47 48 49 49 50 51 51 52 53 53 54 54 55 56 57 57 58 59 60 61 62 64 65 66 67 67 67 67 67 67 67
42 42 43 44 45 45 44 43 41 40 39 38 38 37 36 36 36 36 36 36 36 37 37 36 37 39 39 37 37 39 39 39 40 41 41 41 41 40 40 40 41 41 41 41 42 42 43 43 43 45 45 46 47 48 49 50 50 51 51 52 53 54 55 56 56 57 58 59 60 60 61 61 62 63 64 65 66 67 67 68 68 68 69 69 70
44 44 45 45 46 45 44 43 41 40 39 39 38 37 37 37 38 38 38 38 38 38 38 38 39 40 38 35 36 37 38 39 40 41 41 41 41 40 40 40 40 41 42 42 43 43 44 44 45 46 46 47 49 50 50 51 51 52 53 54 55 55 56 57 57 58 59 60 61 62 62 62 63 64 65 65 66 67 68 68 69 70 71 71 72
45 45 45 45 46 46 44 43 42 41 40 39 38 38 39 39 39 39 39 40 40 40 39 39 40 40 37 34 35 36 38 39 40 41 41 41 41 41 41 41 41 42 42 43 43 44 45 46 46 47 48 49 50 51 52 53 53 54 55 55 55 55 56 57 58 59 60 61 62 62 62 63 64 65 65 66 67 68 69 70 70 71 72 73 73
46 45 45 45 46 46 45 44 43 41 41 40 39 39 40 40 40 41 41 41 41 41 41 40 40 39 36 34 34 36 38 39 40 41 41 42 42 42 43 43 43 43 43 44 45 45 46 47 47 49 50 51 52 53 54 55 55 55 56 56 56 56 57 58 59 59 60 62 62 63 63 65 66 66 67 68 68 69 70 71 72 73 73 73 75
46 45 44 45 46 46 46 45 43 42 41 40 39 41 42 41 41 42 42 42 42 41 42 41 40 40 37 35 34 36 37 40 41 41 42 43 44 43 44 45 46 46 46 46 47 47 47 48 49 50 51 52 53 54 55 56 56 56 57 57 58 58 59 59 60 61 62 63 63 64 65 66 67 67 68 69 70 71 71 72 73 74 74 76 77
46 44 44 45 46 47 46 45 44 43 41 40 41 42 43 42 43 43 43 43 43 43 43 41 41 41 39 37 36 36 37 39 40 41 43 44 45 45 46 47 48 48 49 49 50 50 50 50 51 52 53 53 54 55 56 56 57 57 58 59 59 60 61 61 61 62 63 64 65 65 66 67 68 69 70 71 71 72 72 73 73 75 76 77 77
46 45 45 46 47 47 46 45 45 44 42 42 43 44 44 44 44 44 44 45 45 44 44 43 42 43 41 40 38 38 38 40 41 42 44 46 46 47 47 48 48 49 51 52 52 53 53 54 54 55 55 56 56 56 57 57 58 58 59 60 61 62 61 62 63 64 65 65 66 67 67 69 70 71 71 72 73 73 74 74 75 77 78 78 76
45 46 46 47 48 47 47 46 46 44 43 43 44 45 45 45 45 46 46 46 46 46 46 45 44 44 43 42 41 40 40 41 42 43 45 47 47 48 49 49 50 51 51 52 53 54 55 55 56 57 57 57 58 58 59 59 60 61 61 62 62 62 62 63 64 65 66 67 67 68 69 70 71 72 72 73 74 75 75 76 77 78 78 78 77
46 47 47 47 47 47 48 48 47 45 45 44 45 46 46 46 47 48 48 48 48 48 48 47 46 45 45 44 43 42 43 43 44 45 47 48 49 50 50 51 51 52 53 53 54 55 56 56 58 58 59 59 60 60 61 61 61 62 62 62 62 62 62 64 65 66 66 67 68 69 70 71 72 73 73 74 75 76 76 77 78 78 78 78 77
46 47 47 46 47 48 49 49 47 46 45 45 46 46 46 47 48 49 50 50 50 50 49 48 47 46 46 45 45 45 45 45 45 47 48 49 50 51 52 53 53 54 55 55 56 56 57 58 59 60 60 61 61 62 62 62 62 62 63 63 63 63 64 65 66 66 67 68 69 70 71 72 72 73 74 75 75 76 76 77 78 78 78 77 76
46 47 47 47 48 50 51 50 48 46 45 45 46 46 46 48 49 50 51 51 51 51 50 49 48 47 47 47 47 47 47 47 48 49 49 51 52 53 54 55 56 56 57 58 58 59 60 60 61 62 62 62 62 63 63 63 63 63 64 64 64 64 65 66 66 67 68 69 69 70 71 72 72 73 73 74 75 75 76 76 77 77 77 76 75
45 47 47 48 50 51 51 50 47 46 45 46 47 47 47 49 50 51 52 52 52 51 51 50 49 48 49 50 49 49 49 49 50 51 51 52 53 54 56 57 58 59 59 60 61 61 62 63 64 64 64 64 64 64 64 64 64 64 64 65 65 65 65 66 67 68 69 70 70 71 71 72 72 72 73 74 75 75 76 76 76 76 76 75 75
45 47 48 49 51 51 51 49 47 46 46 47 47 48 49 50 51 52 52 52 53 53 52 51 50 50 51 51 51 51 51 51 51 51 52 53 54 56 57 58 59 60 61 62 63 63 64 65 66 67 67 67 67 66 66 65 65 65 66 66 66 66 66 67 68 69 70 71 71 71 71 71 72 72 73 73 74 74 74 74 74 74 74 74 75
46 48 49 50 52 51 50 48 47 46 47 48 48 49 50 51 51 52 52 53 54 54 53 53 53 53 53 53 53 53 53 53 52 52 52 53 54 56 57 58 60 61 62 63 64 65 66 67 68 68 68 69 68 68 68 67 67 67 67 67 67 67 68 68 69 70 71 71 71 72 72 72 72 72 72 72 73 73 73 73 73 73 73 74 75
48 49 50 52 52 51 50 49 48 47 48 49 50 50 50 50 51 51 52 52 53 54 55 55 55 55 55 54 54 54 54 54 54 53 53 54 55 56 57 58 59 61 62 63 64 65 66 67 68 68 69 69 69 69 69 69 69 68 68 68 69 69 69 69 70 70 71 72 72 72 72 72 72 72 72 72 73 73 73 73 73 73 75 76 77
49 51 52 53 53 52 51 50 50 49 50 51 51 51 50 50 50 51 52 53 54 55 56 57 57 57 56 56 56 56 56 55 55 55 55 56 57 57 58 59 60 61 62 64 65 66 66 67 67 68 68 69 69 69 69 70 70 69 69 69 69 70 70 70 71 71 72 72 73 73 73 72 72 72 72 73 73 73 74 75 75 76 78 79 80
52 53 54 54 54 54 54 53 52 52 53 53 52 51 50 50 51 52 54 55 55 56 57 58 58 58 58 58 58 58 58 58 58 58 58 59 59 60 60 61 62 62 63 65 65 66 66 66 67 67 68 69 69 70 70 70 70 70 70 71 70 71 71 71 72 72 72 72 73 73 73 72 72 72 73 73 74 75 76 78 79 80 81 82 84
53 54 54 55 56 57 57 56 55 55 56 55 53 52 51 52 54 54 55 55 56 58 58 59 59 59 59 59 60 60 60 61 61 61 61 62 62 62 63 63 63 64 65 66 66 66 67 67 68 68 69 69 70 70 70 70 71 71 72 72 72 72 72 72 73 73 73 74 74 73 72 72 71 72 73 74 76 77 79 81 82 83 84 86 86
56 56 57 57 57 58 57 57 56 56 56 55 54 54 54 55 56 56 56 57 58 59 59 60 60 60 61 61 62 62 63 64 64 64 65 65 65 65 65 65 65 66 66 67 67 68 68 69 69 69 69 69 69 70 70 71 72 72 73 73 73 73 73 73 73 73 74 74 74 72 71 71 71 72 73 75 77 79 81 83 84 85 86 88 88
58 59 59 59 59 58 57 56 56 56 56 55 55 56 57 58 58 58 59 60 60 61 61 62 62 62 63 64 64 65 66 66 67 67 67 68 68 68 67 67 68 68 68 68 69 69 70 70 70 70 70 70 71 71 72 73 73 73 73 74 74 74 73 73 72 72 72 72 71 70 70 70 71 72 74 76 78 80 82 84 86 87 88 89 90
60 61 61 61 60 59 58 57 57 57 57 57 58 59 59 60 60 60 61 62 62 63 63 63 64 64 65 66 66 67 67 68 68 69 69 70 69 69 69 69 69 69 69 70 70 70 70 70 70 70 71 72 73 74 75 75 75 75 75 75 75 74 73 72 71 70 70 70 69 69 70 71 72 74 76 78 80 83 85 87 88 89 90 91 91
61 62 62 61 60 59 59 59 59 59 59 59 60 61 61 61 62 62 63 64 64 65 65 65 66 66 67 67 67 68 68 69 69 70 70 71 71 71 70 70 70 70 70 70 70 70 70 70 71 72 72 73 74 76 76 77 77 77 77 77 76 75 73 71 70 70 70 70 70 71 73 74 76 78 80 82 84 86 88 89 90 91 92 92 93
62 62 62 61 60 60 60 61 61 61 62 62 62 62 62 63 64 65 65 66 66 66 66 67 67 68 68 68 68 68 69 69 70 71 71 71 72 72 71 71 70 71 70 70 70 70 71 71 72 72 73 74 76 77 78 78 78 78 78 77 76 74 72 70 70 71 71 73 75 76 78 80 82 83 84 86 87 89 90 91 93 93 94 94 94
63 63 63 63 62 63 63 64 64 64 64 64 64 64 65 66 66 67 67 67 68 68 68 69 69 69 69 69 69 70 70 71 71 71 72 72 72 72 72 71 71 71 71 70 71 71 71 72 72 73 75 76 77 78 79 79 79 78 77 76 74 72 71 71 72 74 76 78 80 82 84 85 86 87 88 89 91 93 94 95 96 96 97 96 96
64 65 65 65 65 66 67 67 67 66 66 65 66 66 67 68 68 68 69 69 69 70 70 71 70 70 70 71 71 71 71 72 72 73 73 73 73 73 72 72 72 71 71 71 71 71 72 73 74 76 77 78 79 80 80 79 79 78 76 74 73 72 73 75 77 79 81 83 85 87 88 89 90 91 92 93 95 96 97 97 98 98 98 97 96
65 66 66 66 67 68 68 68 67 67 67 67 67 68 69 69 70 71 71 72 72 72 72 71 71 71 72 72 72 72 73 73 74 74 74 74 73 73 73 73 72 72 72 72 72 73 74 75 76 78 79 80 80 81 81 81 80 78 76 75 75 75 77 79 81 82 84 86 88 90 92 93 94 95 96 96 97 98 98 99 99 98 98 96 95
64 65 65 66 67 67 67 68 68 68 68 69 70 71 72 72 73 73 73 73 73 73 72 72 72 73 73 73 73 73 74 74 74 75 74 74 74 74 74 74 73 73 74 74 75 75 76 77 78 79 80 81 82 83 83 83 81 79 78 77 78 79 81 82 84 85 87 89 91 93 95 96 97 98 98 99 99 99 99 99 99 98 96 95 93
64 64 65 66 67 67 68 69 70 70 71 72 73 74 74 74 75 75 74 74 73 73 73 73 73 74 74 74 74 74 75 75 75 75 75 75 75 75 75 75 74 74 75 75 76 77 78 79 80 80 81 82 84 85 85 85 84 82 80 80 81 83 84 85 87 89 90 92 94 96 97 98 99 100 100 100 100 99 99 98 97 95 93 91 89
66 67 67 68 69 70 71 72 72 73 73 74 74 74 74 74 74 74 73 73 73 73 73 74 74 74 75 75 75 76 76 76 76 76 76 76 76 76 76 75 75 75 75 76 77 78 79 80 81 82 84 85 86 87 87 87 85 84 83 83 84 86 87 88 90 92 93 95 97 98 100 101 101 101 101 101 99 98 97 95 93 91 89 87 85
68 69 70 72 72 73 73 73 73 73 73 73 73 73 73 73 73 72 72 73 73 74 74 74 75 75 75 76 76 77 77 77 77 77 77 77 76 76 75 75 76 76 77 77 78 79 80 82 83 85 87 88 89 89 89 88 87 86 86 86 87 89 90 92 93 94 96 98 99 101 102 102 102 101 101 99 97 95 93 91 88 86 83 81 79
69 71 72 72 73 73 73 73 73 73 73 73 73 73 73 73 73 73 74 74 75 75 75 76 76 76 77 78 78 79 79 79 78 78 77 77 76 76 75 76 76 77 78 78 80 81 82 84 86 87 89 90 91 91 91 90 90 89 89 90 91 92 94 95 96 98 99 101 102 103 103 102 101 100 98 96 94 91 88 85 82 80 77 74 72
70 71 72 73 74 74 74 74 74 74 74 74 75 75 75 75 76 76 76 77 77 77 77 78 78 79 79 80 81 81 80 79 78 78 77 76 76 76 76 77 77 78 79 81 82 84 85 87 88 90 91 92 93 93 93 92 92 92 93 94 95 96 97 98 99 101 102 103 104 103 102 101 100 98 95 92 89 86 82 79 76 73 70 67 63
71 72 73 73 74 74 74 75 75 75 76 76 76 77 77 78 79 79 79 79 79 80 80 80 81 81 82 83 83 82 80 79 78 77 76 76 76 77 77 78 80 81 83 84 85 87 88 89 91 92 93 94 94 95 94 94 95 95 96 97 98 99 100 101 102 103 104 104 104 102 101 99 96 93 90 86 82 78 74 71 68 65 61 58 54
71 72 73 74 74 75 75 76 77 77 78 79 79 80 81 81 82 82 82 81 81 82 82 82 83 83 84 83 82 81 79 78 77 76 76 77 78 79 80 82 84 85 86 87 88 89 90 91 93 94 95 95 96 96 96 96 97 98 99 100 101 102 103 103 104 105 104 103 102 100 97 94 91 87 83 78 74 70 66 63 60 56 52 49 46
71 72 73 74 75 76 77 77 78 79 80 81 81 82 82 83 83 83 83 83 83 84 84 84 84 84 83 82 81 80 78 78 77 78 78 79 80 82 85 87 88 89 89 89 90 91 93 93 95 96 96 97 97 98 98 99 100 101 102 102 103 104 104 104 104 104 102 101 98 96 92 88 84 79 74 70 65 62 58 54 51 48 44 43 42
71 72 73 74 75 76 77 78 79 80 81 82 82 83 83 84 84 85 85 85 85 85 85 85 84 83 82 81 80 80 79 79 80 80 81 82 84 87 89 90 90 90 90 91 92 94 95 95 96 97 98 98 99 100 101 102 102 103 104 104 104 104 104 103 102 100 99 96 93 90 85 80 75 70 65 61 57 53 49 45 42 40 40 41 42
73 74 75 76 76 77 78 79 80 81 82 83 84 84 85 86 86 86 86 86 86 85 84 84 83 82 81 81 81 81 81 82 82 83 85 87 89 90 91 91 90 91 92 94 95 96 97 97 98 99 100 100 101 102 103 104 104 104 104 104 104 103 102 100 98 96 93 90 86 81 76 70 65 61 56 52 48 44 41 39 38 38 39 41 43
76 76 77 78 79 80 81 82 83 84 84 85 86 86 87 87 87 87 86 85 84 84 83 83 82 82 82 83 83 83 84 85 86 88 89 91 91 91 91 91 92 93 95 96 97 98 99 99 100 101 102 103 104 104 105 105 105 104 104 103 102 100 98 96 93 90 87 83 78 72 66 61 56 52 49 44 41 38 37 38 38 39 39 39 39
79 80 81 82 83 84 84 85 85 86 86 87 87 87 87 87 86 85 84 83 83 83 83 83 84 84 85 85 85 86 88 89 91 92 92 92 92 92 92 93 94 96 97 98 99 100 101 101 102 103 104 105 105 105 105 105 104 103 101 100 97 95 92 90 87 83 79 73 67 61 57 53 49 46 42 40 38 37 38 38 39 39 39 38 37
83 84 85 85 85 86 86 86 87 87 87 88 87 87 86 85 84 83 82 82 83 84 85 86 86 87 87 87 88 90 92 93 93 93 93 93 93 93 94 95 97 98 99 100 101 102 102 103 104 104 105 105 105 105 104 103 101 100 97 94 91 88 85 82 79 75 69 63 58 53 50 47 44 41 39 38 38 38 38 38 39 39 39 38 38
86 87 87 87 87 87 87 88 88 88 88 87 86 85 84 83 82 82 83 84 86 87 87 88 88 88 89 90 91 93 94 94 94 94 94 94 95 95 96 98 99 100 101 102 103 104 104 105 105 105 105 105 104 103 101 100 98 95 92 88 84 81 78 75 70 65 60 55 50 47 45 43 41 40 39 39 39 39 39 39 39 39 38 38 38
88 88 88 88 88 88 88 88 88 87 86 86 85 84 83 83 84 85 86 87 88 88 89 89 89 90 91 93 94 94 94 93 94 95 95 95 96 96 98 99 101 102 103 104 105 105 105 105 105 104 104 103 101 100 98 95 92 89 85 81 78 75 71 67 62 57 52 49 46 44 42 41 40 40 40 40 40 40 40 39 39 38 38 38 38
Wind_Direction
276 277 278 279 282 285 286 288 289 289 289 289 290 290 290 291 292 293 294 294 295 295 294 295 296 297 299 301 304 306 306 307 307 307 307 306 305 304 303 302 302 303 304 306 308 308 309 310 310 310 311 310 308 306 306 306 308 309 309 308 308 308 308 309 310 309 308 308 306 305 304 304 304 304 305 305 305 305 305 305 304 305 306 307 309
277 277 277 278 281 283 286 289 290 291 291 291 291 292 292 293 293 293 293 294 294 293 294 296 298 300 304 306 308 308 308 307 307 306 305 304 303 301 301 303 305 307 309 309 310 310 310 310 310 310 310 310 308 307 306 307 308 309 309 309 308 308 307 307 308 308 308 306 306 305 304 304 304 304 304 305 304 304 304 304 304 304 305 307 308
276 276 276 278 281 284 287 289 290 291 291 291 291 291 291 291 291 291 291 292 292 293 295 296 299 303 306 308 308 308 309 309 308 307 306 304 303 302 304 306 308 309 309 309 310 310 310 310 310 309 310 310 309 308 307 306 307 307 307 307 306 306 306 306 307 307 307 306 305 305 304 304 303 303 303 303 303 303 303 303 303 304 305 307 307
276 276 277 280 283 286 288 289 289 290 289 288 288 288 288 288 288 288 289 290 291 293 294 296 300 304 306 308 310 311 312 312 311 309 307 306 306 306 308 309 309 309 309 310 311 311 310 309 308 308 308 308 308 307 305 305 305 305 305 305 305 305 306 306 306 306 306 305 304 303 303 303 303 302 303 303 302 302 302 302 303 304 306 307 307
276 278 280 282 284 286 287 288 288 288 287 286 285 286 286 286 286 287 288 289 290 290 291 295 299 303 306 310 313 314 313 313 311 309 308 309 310 311 311 312 312 311 311 311 311 310 310 308 308 308 308 308 307 305 304 304 304 305 305 305 305 305 306 306 306 305 305 304 303 303 303 303 302 302 302 301 301 301 302 302 304 306 306 307 307
279 281 282 282 283 284 285 286 286 285 284 283 283 284 284 284 285 286 287 287 287 286 288 293 298 303 308 312 313 314 313 313 311 310 310 311 312 313 314 314 314 313 312 311 311 311 311 310 310 310 309 308 307 307 306 306 307 307 306 305 305 306 306 306 306 305 305 304 304 303 303 302 301 301 301 300 300 301 302 304 306 307 306 307 307
280 280 280 280 281 283 284 284 283 282 281 281 282 282 282 282 283 284 284 284 283 283 287 294 300 306 310 312 313 314 315 314 312 311 311 312 313 315 315 316 315 315 313 312 312 312 312 313 313 312 311 310 309 309 308 308 308 308 307 306 306 307 307 306 306 306 305 304 304 303 302 301 301 301 300 300 301 302 304 305 306 307 307 307 306
278 277 277 278 280 282 282 281 279 278 279 280 280 280 280 281 281 282 282 281 280 281 288 296 303 308 310 312 314 316 317 315 313 312 312 313 315 315 316 316 315 314 313 312 312 312 312 313 313 313 312 312 311 311 311 311 311 310 310 309 309 309 308 308 307 306 306 305 305 304 303 303 303 302 302 302 303 304 305 306 306 307 307 307 306
275 274 275 277 279 280 279 277 276 276 277 278 278 278 279 280 281 282 281 280 279 282 289 297 304 308 310 312 316 319 318 315 314 313 313 314 316 316 316 315 314 313 311 311 311 311 311 311 311 311 312 312 312 313 313 312 312 312 312 312 312 312 311 311 310 310 309 309 308 308 307 307 307 306 305 306 306 307 307 307 307 307 307 306 306
274 274 275 277 279 278 277 274 274 276 277 277 277 278 279 280 281 281 281 280 279 282 290 298 304 306 308 313 318 319 317 315 314 313 314 315 315 315 315 315 314 312 311 311 311 310 310 309 310 310 311 312 312 312 311 311 310 311 311 311 312 312 312 312 312 312 312 311 311 310 310 310 309 308 308 308 308 307 306 306 306 306 305 304 304
274 275 276 278 278 276 274 273 274 275 276 276 277 278 280 280 281 281 280 279 279 282 289 297 302 303 306 312 317 317 316 314 312 312 313 313 314 314 314 313 313 312 311 311 311 310 310 310 310 310 310 310 309 309 309 309 309 310 310 310 310 310 311 311 311 311 311 310 309 309 309 309 308 307 307 306 306 305 305 304 304 303 303 303 303
273 274 275 277 275 273 271 272 274 275 275 275 277 279 280 280 280 280 279 279 279 281 288 296 300 300 303 309 313 314 313 311 310 310 310 311 311 312 312 312 312 312 312 311 311 310 310 310 310 309 309 308 308 308 308 308 309 309 309 309 309 309 310 310 310 309 309 308 307 307 307 307 305 305 305 304 304 303 303 303 302 302 302 303 302
273 273 274 273 271 270 270 272 273 274 275 276 278 279 279 279 279 278 278 279 280 282 288 294 297 297 300 304 308 309 309 309 308 308 308 309 310 311 312 312 312 312 312 312 311 311 311 310 310 309 308 308 308 308 308 308 309 309 309 308 308 308 308 308 308 308 307 307 306 306 306 305 304 304 303 302 302 302 301 301 301 301 302 301 301
272 272 271 270 268 269 270 271 273 274 275 277 278 279 279 279 278 278 279 281 281 283 288 292 294 295 296 299 301 303 305 306 306 306 308 309 309 310 311 311 312 312 313 313 313 312 311 311 311 310 309 309 308 308 308 308 308 308 307 307 307 307 307 307 308 307 306 306 305 305 304 304 303 303 302 301 301 301 301 301 301 301 301 301 301
271 269 268 267 267 268 270 272 273 274 276 278 279 279 279 279 278 279 281 283 283 284 287 290 292 292 293 294 296 299 301 302 303 305 307 307 307 308 309 309 310 311 312 313 313 312 313 313 313 312 311 310 309 308 308 308 308 307 307 308 308 308 308 308 308 307 306 305 305 304 303 303 302 302 301 301 300 300 301 301 300 300 300 300 301
268 267 267 266 266 268 270 273 274 275 277 279 279 279 278 278 279 280 282 283 284 284 286 288 290 290 291 292 294 296 298 299 302 304 304 304 305 306 306 306 308 309 310 310 311 312 313 313 313 312 311 310 310 310 310 309 309 309 310 310 310 310 309 309 308 307 306 306 305 304 303 302 302 301 301 300 300 300 300 300 299 300 300 301 301
265 266 265 265 265 268 271 273 274 276 278 278 278 278 278 279 280 281 282 283 283 284 285 286 288 289 290 292 294 295 296 298 301 302 302 303 304 304 305 306 307 307 307 308 309 310 310 310 311 310 310 309 310 310 311 311 311 311 311 311 311 310 309 308 307 307 307 307 306 304 303 303 302 301 301 300 300 300 300 300 300 300 301 301 301
264 264 264 264 266 269 271 273 274 276 278 278 278 278 279 280 281 281 282 282 283 283 283 285 287 289 290 292 294 295 296 297 299 299 300 301 302 303 304 305 305 306 306 307 307 308 308 308 309 309 308 309 310 310 310 311 311 310 310 310 311 310 308 307 308 308 307 306 305 304 303 302 302 301 301 301 300 300 300 300 300 301 301 301 301
262 262 263 265 267 269 271 273 275 277 278 277 277 278 279 280 281 281 282 282 282 282 284 286 288 290 292 294 295 296 295 296 296 297 298 300 302 303 304 305 305 305 305 305 306 306 307 307 307 307 307 308 308 309 309 309 309 309 310 310 310 309 308 308 308 307 306 305 305 303 303 302 302 301 301 301 301 301 300 300 300 301 301 301 301
260 262 263 265 266 268 270 273 275 276 277 277 277 278 279 280 281 282 282 282 282 284 286 287 289 292 293 295 295 295 296 295 296 297 299 300 302 303 303 304 304 304 304 305 305 306 306 306 306 306 306 306 307 307 308 309 309 310 310 310 309 309 308 307 307 305 305 304 303 302 302 302 302 301 301 301 300 300 300 300 301 301 302 302 302
262 263 264 265 266 268 270 273 276 277 277 277 277 278 279 280 281 282 282 283 284 286 287 289 291 293 294 295 295 296 297 297 297 297 298 300 301 302 303 303 303 304 304 305 305 305 305 305 305 305 306 306 306 307 308 308 309 309 309 308 308 308 307 306 305 304 304 303 302 302 302 301 301 301 301 301 301 301 301 301 302 302 302 302 301
264 264 265 266 267 269 272 275 276 277 277 277 278 278 279 281 282 283 284 285 286 287 289 292 293 294 295 296 297 297 297 297 296 296 297 299 300 301 302 303 304 304 304 304 304 304 304 304 305 305 306 306 307 307 308 308 308 308 308 307 307 306 305 304 304 303 303 303 302 302 302 302 301 301 301 301 301 301 301 301 301 301 301 301 301
266 266 266 267 269 271 274 276 276 276 276 277 278 279 280 281 283 284 285 287 288 290 292 294 295 295 296 297 297 297 296 296 296 296 297 297 298 299 300 301 302 303 303 303 303 303 303 303 304 304 305 306 307 307 308 308 308 307 307 307 306 306 304 303 303 302 303 303 303 303 302 301 301 301 300 300 300 300 299 299 299 300 300 300 301
267 267 268 269 271 273 275 276 276 276 277 279 280 280 281 282 283 284 286 288 290 292 294 295 295 295 296 296 296 296 295 295 295 295 296 296 296 297 298 299 300 300 300 301 301 301 302 303 303 304 305 306 307 307 307 307 307 307 307 306 306 306 305 304 303 303 303 303 303 302 302 301 301 301 301 300 300 299 299 299 300 300 300 300 301
269 269 270 271 273 275 276 276 277 278 280 282 282 282 282 283 284 286 288 290 291 292 293 294 294 294 295 295 295 294 295 295 295 295 295 295 295 296 297 297 298 298 299 299 299 300 301 302 303 304 305 306 306 306 306 306 306 307 307 307 307 307 306 305 305 305 304 304 303 302 301 301 301 301 301 301 300 300 300 300 301 301 301 302 302
270 271 272 274 275 276 277 278 279 281 282 282 282 283 284 285 287 289 290 291 292 292 292 293 293 293 294 294 294 294 294 295 294 294 294 294 295 295 296 296 296 297 298 298 299 300 301 302 303 304 305 306 306 306 306 306 307 307 308 308 308 308 307 306 306 306 305 304 304 303 302 302 302 302 302 302 301 301 301 302 302 302 303 303 303
272 273 273 274 275 276 277 278 279 280 280 281 281 283 285 287 288 289 290 291 291 291 292 292 292 292 293 293 293 294 295 294 294 294 294 294 294 294 294 295 296 297 297 298 300 301 302 303 304 305 305 306 306 306 307 307 308 309 309 310 310 309 308 307 306 306 305 304 304 303 303 302 302 302 303 303 303 303 303 303 303 303 303 302 303
274 275 274 274 274 275 275 277 278 279 280 281 282 284 285 287 288 289 290 290 290 290 290 291 291 291 292 293 293 294 294 294 294 294 294 294 294 293 294 295 296 297 298 299 300 301 302 303 304 304 305 306 306 307 308 309 310 310 310 310 310 309 308 306 306 305 304 304 303 303 303 303 303 303 304 304 303 303 302 302 302 302 302 302 303
272 273 274 275 275 276 277 278 279 280 281 282 284 285 286 286 287 288 289 288 288 289 289 289 290 291 291 292 292 292 292 292 293 293 293 293 293 293 294 295 296 297 298 299 300 301 302 302 303 304 305 306 307 308 309 310 310 310 310 309 308 307 306 305 305 304 304 303 303 303 303 303 303 303 303 303 302 302 301 302 302 302 302 302 303
270 271 272 273 274 276 278 278 279 281 282 283 284 285 285 285 286 286 286 286 287 288 289 289 290 290 290 290 291 291 291 291 292 292 292 292 292 293 294 295 296 297 299 299 300 301 301 302 303 304 306 307 308 309 310 310 310 310 309 308 307 307 306 306 305 305 305 305 305 304 304 303 302 302 302 302 302 302 302 302 302 302 302 302 302
267 269 270 272 273 275 276 277 279 280 281 282 283 283 283 284 284 284 284 285 286 287 288 289 289 289 289 289 289 289 290 290 290 290 290 291 292 293 294 295 296 297 298 298 299 300 301 303 304 305 307 308 310 310 311 310 310 309 309 308 308 307 307 307 307 307 307 306 306 305 303 302 302 303 303 303 303 303 303 303 303 302 302 302 301
267 268 269 271 272 274 275 276 278 279 280 281 281 281 282 282 282 282 284 285 286 287 287 288 287 287 288 288 288 288 289 289 289 289 290 291 292 293 294 295 296 296 297 298 299 300 301 303 305 306 308 310 311 312 312 311 310 310 309 309 308 308 307 308 308 308 307 306 306 305 305 305 305 305 305 305 305 305 305 305 304 303 303 302 302
266 267 269 270 272 273 274 276 277 278 278 279 279 279 280 280 281 282 283 285 286 286 287 287 287 287 287 287 287 288 288 288 289 289 290 291 291 292 293 294 294 295 297 298 299 300 302 303 305 307 308 310 311 313 314 313 312 310 309 308 308 308 308 308 308 308 308 307 308 308 307 307 307 307 308 308 307 307 306 306 305 304 303 303 302
266 267 268 270 271 272 273 274 275 276 276 277 278 278 279 280 281 283 284 285 286 286 286 286 286 286 286 287 287 287 288 288 288 289 289 290 291 292 292 293 294 295 296 297 299 300 302 304 306 307 308 310 312 314 315 315 313 311 309 308 308 307 308 308 308 309 309 309 309 309 309 309 309 309 309 308 308 307 306 305 304 303 303 302 301
265 266 267 268 269 270 271 272 273 274 275 276 277 278 279 281 282 283 284 285 285 285 285 285 285 285 285 286 286 287 287 287 288 288 289 290 291 291 292 293 294 295 296 297 298 300 302 304 305 307 309 310 312 313 315 315 313 311 308 307 307 307 308 308 309 309 310 310 310 310 310 310 310 309 309 308 308 307 305 304 304 303 302 301 300
265 266 266 267 268 269 270 271 273 274 275 276 277 278 279 280 281 282 282 283 283 283 283 283 283 284 284 285 285 286 286 287 287 288 289 290 290 291 292 293 294 295 296 297 298 300 302 304 305 307 308 310 311 312 314 314 312 310 307 306 306 307 308 309 309 310 310 311 311 311 311 310 310 309 309 308 307 306 305 304 303 302 301 300 299
265 265 265 266 267 268 270 271 272 273 274 275 276 277 277 278 279 280 280 281 281 281 281 282 282 283 283 284 284 285 286 286 287 288 289 289 290 291 292 293 294 295 296 298 300 301 303 304 306 307 308 309 310 311 312 313 311 309 307 306 307 308 309 309 310 311 311 311 311 311 311 311 310 309 308 308 307 306 305 304 303 302 301 300 299
266 266 266 267 268 269 270 271 272 272 273 274 274 275 276 277 277 278 278 279 279 280 280 281 281 282 282 283 284 285 286 286 287 288 289 289 290 291 292 293 294 296 297 299 300 302 303 305 306 307 308 309 310 311 311 311 310 308 307 306 307 308 309 310 311 311 311 312 312 312 311 311 310 309 308 307 306 305 304 303 303 302 300 299 298
268 269 269 270 271 271 272 272 273 273 274 274 275 275 276 276 277 277 277 278 279 279 280 280 281 282 282 283 284 285 286 286 287 288 288 289 290 291 292 294 295 297 298 300 301 303 304 306 307 307 308 309 310 310 310 310 309 307 307 307 308 309 310 311 312 312 312 312 312 311 311 310 309 308 308 307 306 305 304 303 302 301 300 299 298
270 270 270 271 271 272 272 273 273 274 274 275 275 276 276 276 277 277 278 278 279 279 280 280 281 282 283 283 284 285 285 286 287 288 289 290 291 293 294 295 297 298 300 301 302 304 305 305 306 307 308 308 309 309 309 309 308 308 308 309 309 310 311 312 312 312 312 312 311 311 310 309 309 308 308 307 306 305 304 303 302 301 301 300 299
268 269 269 270 271 271 272 273 273 274 274 275 275 275 276 276 277 278 278 279 279 280 281 281 282 282 283 284 284 285 286 287 288 290 291 292 293 295 296 297 298 299 301 302 303 304 304 305 306 306 307 308 308 308 308 308 308 309 309 310 311 312 312 312 313 312 312 311 311 310 310 309 309 308 307 307 306 305 304 304 303 302 301 300 299
267 267 268 269 270 271 272 272 273 273 274 274 275 275 276 277 278 278 279 279 280 280 281 281 281 282 283 283 284 285 287 288 290 291 292 293 295 296 297 298 299 300 301 302 302 303 304 304 305 306 307 307 308 308 308 309 309 310 310 311 311 312 312 312 312 312 312 311 311 310 310 309 308 308 307 306 306 305 305 304 303 302 301 300 300
268 269 269 270 271 271 272 273 273 274 274 275 276 276 277 277 277 278 278 278 279 279 280 280 281 282 282 283 285 286 288 289 290 292 293 294 295 297 298 299 299 300 300 301 302 303 303 304 305 306 307 308 308 308 309 309 310 310 311 311 312 312 312 312 312 312 311 311 311 310 309 309 308 308 307 307 306 306 305 304 302 301 301 301 302
269 269 270 270 271 272 272 273 273 274 274 275 275 275 275 276 276 276 277 278 278 279 279 280 280 281 282 284 286 287 288 290 291 292 293 294 295 296 297 297 298 299 300 301 301 302 303 304 305 307 307 308 309 309 309 310 310 311 311 311 312 312 312 312 312 311 311 311 310 310 309 309 308 308 308 308 307 306 305 303 302 301 301 301 302
269 269 269 270 270 271 271 272 272 272 273 273 273 274 274 275 275 276 277 277 278 278 279 279 280 282 283 285 287 287 289 290 291 292 292 293 294 294 295 296 297 298 299 301 302 303 304 305 306 307 308 309 309 310 310 310 310 311 311 312 312 312 312 312 311 311 311 310 310 310 309 309 308 308 308 308 307 306 305 303 302 301 302 302 301
268 268 268 268 269 269 270 270 271 271 271 272 273 273 274 274 275 275 276 277 277 278 279 280 282 283 285 286 287 287 289 290 290 291 291 291 291 292 293 295 297 298 300 301 302 304 305 306 307 308 309 309 310 310 310 310 310 311 311 311 312 312 312 311 311 311 310 310 310 309 309 309 309 308 308 308 307 305 304 303 303 304 304 304 302
266 267 267 267 268 268 269 269 270 270 271 272 272 273 273 274 274 275 275 277 278 279 280 282 283 284 285 286 286 287 289 289 289 289 289 289 290 291 293 296 298 299 301 302 303 305 306 307 308 308 309 309 310 310 310 310 310 310 311 311 311 311 311 311 311 310 310 310 309 309 309 308 308 308 307 307 305 304 303 303 304 305 307 307 307
267 267 267 268 268 268 269 269 270 270 271 271 272 272 272 273 273 275 276 277 279 280 281 283 283 284 284 285 286 287 288 287 287 287 287 288 290 292 294 297 299 301 302 303 304 305 306 307 308 308 309 309 309 309 309 310 310 310 311 311 311 311 311 311 310 310 309 309 309 308 308 307 307 306 306 305 303 302 303 303 304 306 307 309 310
267 267 268 268 268 269 269 270 270 270 270 270 270 271 271 272 274 275 277 278 279 280 281 282 282 283 283 284 285 285 285 285 285 286 287 289 290 293 295 298 300 302 303 304 305 306 307 307 308 308 308 309 309 309 309 309 309 310 310 310 310 310 310 310 309 309 308 308 307 307 306 305 305 305 304 304 303 303 304 304 304 305 307 308 309
267 267 267 268 268 268 268 268 268 268 268 269 269 270 272 273 275 276 276 278 279 280 280 281 281 282 283 283 284 284 284 284 286 287 288 289 291 293 296 299 301 302 303 304 305 306 306 307 307 308 308 308 308 308 308 309 309 309 310 310 309 309 309 308 308 307 307 306 305 304 304 304 304 304 304 304 304 304 305 305 305 305 306 307 308
266 265 265 266 266 266 266 267 267 267 268 269 270 271 272 273 274 275 276 277 278 279 279 280 280 281 282 282 282 282 283 285 287 288 289 290 291 294 297 299 301 302 303 304 305 305 306 306 307 307 307 307 307 307 308 308 309 309 309 309 308 307 307 306 306 305 304 303 302 302 302 303 304 304 304 305 305 305 305 306 306 306 307 308 309
Height
5834 5834 5834 5834 5833 5832 5831 5830 5829 5828 5826 5825 5824 5822 5821 5820 5818 5817 5816 5814 5813 5812 5811 5810 5808 5807 5805 5803 5801 5799 5797 5795 5792 5790 5788 5785 5783 5780 5777 5774 5772 5769 5767 5765 5762 5760 5757 5755 5752 5750 5748 5747 5745 5742 5739 5736 5733 5731 5728 5726 5723 5720 5716 5713 5711 5708 5706 5704 5701 5698 5694 5691 5688 5685 5682 5680 5677 5674 5671 5667 5664 5660 5658 5656 5653
5830 5830 5830 5829 5829 5828 5827 5825 5824 5823 5822 5820 5819 5818 5816 5815 5814 5812 5811 5810 5809 5808 5806 5805 5804 5803 5801 5799 5797 5795 5793 5791 5788 5786 5783 5781 5778 5775 5771 5768 5766 5764 5761 5759 5757 5754 5751 5749 5747 5745 5743 5741 5739 5737 5734 5731 5728 5725 5723 5720 5717 5714 5710 5707 5705 5703 5701 5699 5696 5693 5690 5686 5683 5679 5677 5675 5672 5668 5665 5662 5658 5655 5653 5651 5648
5826 5825 5825 5825 5824 5823 5822 5821 5819 5818 5817 5816 5815 5813 5812 5811 5809 5808 5806 5805 5804 5803 5802 5801 5800 5799 5797 5795 5794 5791 5789 5787 5785 5782 5779 5776 5773 5770 5767 5764 5761 5759 5756 5754 5751 5749 5746 5744 5742 5740 5738 5736 5734 5731 5729 5726 5723 5720 5718 5715 5711 5709 5706 5702 5700 5698 5696 5693 5691 5688 5685 5681 5678 5674 5672 5669 5666 5663 5659 5656 5653 5650 5647 5645 5642
5821 5821 5820 5820 5819 5818 5817 5816 5814 5813 5812 5811 5810 5808 5807 5806 5804 5803 5802 5801 5800 5798 5797 5796 5795 5794 5793 5792 5790 5788 5786 5783 5780 5777 5774 5771 5768 5765 5763 5760 5757 5755 5752 5749 5747 5745 5742 5740 5738 5735 5733 5731 5728 5726 5723 5720 5718 5716 5713 5710 5707 5704 5701 5698 5696 5693 5690 5688 5685 5682 5679 5675 5672 5669 5666 5663 5660 5656 5653 5650 5647 5644 5641 5638 5635
5816 5816 5815 5815 5814 5813 5812 5810 5809 5808 5807 5806 5805 5804 5802 5801 5800 5798 5797 5796 5795 5794 5793 5793 5791 5790 5789 5787 5785 5783 5781 5778 5774 5771 5768 5765 5763 5761 5758 5756 5753 5751 5748 5746 5743 5741 5739 5736 5734 5731 5729 5726 5723 5721 5719 5716 5713 5711 5708 5706 5703 5700 5697 5694 5691 5689 5686 5683 5679 5676 5673 5669 5666 5663 5660 5656 5653 5650 5646 5643 5640 5638 5635 5631 5628
5811 5811 5810 5810 5809 5808 5806 5805 5804 5803 5802 5801 5800 5799 5797 5796 5795 5794 5792 5791 5791 5790 5789 5789 5787 5786 5784 5782 5780 5778 5775 5772 5768 5766 5763 5761 5758 5756 5754 5751 5749 5747 5744 5742 5740 5738 5735 5733 5730 5728 5725 5722 5719 5717 5714 5711 5709 5707 5704 5701 5698 5695 5692 5690 5687 5684 5682 5678 5675 5671 5667 5664 5661 5657 5654 5651 5647 5644 5640 5637 5634 5632 5629 5625 5621
5806 5806 5805 5805 5804 5802 5801 5800 5799 5798 5797 5796 5795 5794 5792 5791 5790 5789 5788 5787 5786 5786 5785 5784 5783 5781 5779 5777 5775 5772 5769 5766 5763 5761 5758 5756 5754 5752 5749 5747 5744 5742 5740 5738 5736 5734 5731 5729 5726 5724 5721 5718 5715 5712 5709 5707 5705 5702 5700 5697 5694 5691 5688 5685 5682 5680 5677 5674 5671 5667 5663 5660 5656 5653 5650 5646 5642 5638 5634 5631 5628 5626 5623 5619 5615
5801 5801 5800 5800 5798 5797 5795 5794 5794 5793 5792 5791 5790 5788 5787 5786 5785 5784 5783 5782 5782 5781 5780 5779 5777 5775 5774 5772 5770 5767 5764 5761 5758 5756 5754 5751 5749 5747 5744 5742 5740 5738 5736 5733 5731 5729 5727 5724 5722 5719 5716 5713 5710 5708 5706 5703 5701 5698 5696 5692 5690 5687 5683 5681 5678 5675 5673 5670 5666 5663 5659 5656 5652 5649 5645 5641 5637 5633 5629 5626 5623 5620 5616 5613 5609
5796 5795 5795 5794 5792 5791 5790 5789 5788 5787 5786 5785 5784 5783 5782 5781 5780 5779 5779 5778 5777 5776 5775 5773 5771 5770 5769 5767 5764 5761 5758 5756 5754 5751 5749 5746 5744 5742 5740 5738 5736 5734 5732 5729 5727 5725 5722 5719 5717 5714 5711 5709 5706 5704 5702 5699 5696 5694 5691 5688 5685 5682 5679 5676 5674 5671 5668 5665 5661 5658 5654 5651 5648 5644 5640 5636 5632 5628 5624 5619 5616 5613 5609 5605 5602
5790 5789 5789 5788 5786 5785 5784 5783 5782 5781 5780 5779 5779 5778 5777 5776 5775 5774 5774 5773 5772 5771 5769 5768 5766 5764 5763 5761 5758 5756 5753 5751 5749 5747 5744 5742 5740 5738 5736 5734 5731 5729 5727 5725 5723 5720 5718 5715 5712 5710 5707 5705 5702 5700 5697 5694 5691 5689 5686 5683 5680 5677 5674 5671 5668 5665 5662 5659 5655 5652 5649 5645 5642 5637 5634 5630 5626 5622 5617 5612 5608 5605 5601 5597 5594
5784 5783 5783 5782 5780 5779 5778 5777 5776 5775 5775 5774 5773 5773 5772 5771 5770 5769 5768 5768 5766 5765 5764 5762 5761 5759 5758 5755 5753 5751 5749 5746 5744 5742 5740 5738 5736 5733 5731 5729 5727 5724 5722 5720 5718 5716 5713 5710 5708 5706 5703 5700 5697 5694 5692 5689 5686 5684 5681 5678 5675 5672 5668 5665 5662 5659 5655 5652 5648 5645 5642 5639 5634 5630 5627 5623 5619 5614 5610 5605 5601 5597 5592 5589 5585
5777 5777 5777 5775 5774 5773 5771 5771 5770 5770 5769 5769 5768 5767 5766 5766 5765 5764 5763 5762 5761 5760 5758 5757 5755 5754 5752 5749 5747 5745 5743 5741 5739 5737 5735 5733 5731 5729 5726 5724 5722 5720 5717 5715 5713 5711 5708 5705 5703 5701 5698 5695 5693 5690 5687 5684 5681 5678 5675 5671 5668 5665 5662 5659 5656 5652 5648 5644 5640 5637 5634 5631 5626 5623 5619 5615 5610 5606 5602 5597 5593 5588 5584 5580 5576
5771 5771 5770 5769 5768 5766 5765 5765 5765 5764 5764 5763 5763 5762 5761 5760 5759 5758 5758 5757 5755 5754 5753 5751 5750 5748 5746 5744 5741 5739 5737 5736 5734 5732 5730 5728 5726 5724 5721 5719 5717 5715 5713 5710 5708 5706 5703 5701 5699 5696 5693 5691 5688 5684 5681 5678 5675 5672 5669 5665 5662 5659 5656 5652 5649 5645 5641 5637 5633 5630 5626 5622 5618 5615 5610 5606 5602 5598 5593 5589 5585 5580 5576 5572 5567
5765 5764 5764 5762 5761 5760 5759 5759 5759 5759 5758 5758 5757 5756 5755 5755 5754 5753 5752 5751 5750 5749 5747 5746 5744 5743 5741 5738 5735 5733 5732 5730 5728 5726 5724 5722 5720 5718 5716 5714 5712 5709 5707 5705 5703 5701 5698 5696 5694 5691 5688 5685 5682 5678 5675 5672 5669 5666 5663 5660 5656 5653 5649 5646 5642 5638 5634 5630 5626 5623 5619 5614 5610 5606 5601 5597 5593 5589 5585 5581 5576 5572 5567 5563 5559
5758 5758 5757 5756 5755 5753 5753 5753 5753 5753 5753 5752 5751 5750 5749 5749 5748 5747 5747 5745 5744 5743 5742 5740 5739 5737 5735 5732 5730 5728 5726 5724 5723 5721 5719 5717 5714 5712 5710 5708 5706 5704 5701 5699 5697 5695 5692 5690 5688 5685 5682 5679 5676 5672 5670 5666 5663 5660 5657 5653 5650 5646 5643 5639 5635 5631 5627 5623 5619 5616 5612 5607 5603 5598 5594 5589 5585 5581 5577 5573 5568 5564 5559 5555 5551
5751 5751 5751 5750 5748 5747 5747 5748 5747 5747 5747 5746 5745 5745 5744 5743 5742 5741 5741 5740 5739 5737 5736 5734 5733 5731 5729 5727 5724 5722 5720 5719 5717 5715 5713 5711 5709 5707 5704 5702 5700 5698 5695 5693 5690 5688 5686 5683 5681 5678 5675 5672 5669 5666 5663 5660 5657 5653 5650 5646 5643 5639 5635 5632 5628 5624 5620 5616 5613 5609 5605 5600 5595 5591 5586 5582 5577 5573 5569 5565 5560 5556 5551 5547 5544
5745 5745 5744 5743 5742 5742 5742 5742 5742 5741 5741 5741 5740 5739 5738 5737 5737 5736 5735 5734 5733 5731 5730 5728 5726 5724 5723 5721 5719 5717 5715 5713 5712 5710 5708 5706 5703 5701 5698 5696 5694 5691 5689 5686 5684 5681 5679 5676 5674 5671 5668 5664 5661 5658 5655 5652 5649 5646 5642 5639 5635 5631 5628 5623 5620 5616 5613 5609 5605 5601 5597 5593 5588 5584 5579 5574 5570 5565 5561 5556 5552 5548 5543 5540 5537
5739 5738 5738 5737 5737 5737 5736 5736 5736 5736 5736 5735 5734 5733 5732 5732 5731 5730 5729 5728 5726 5725 5724 5722 5720 5718 5717 5715 5713 5711 5709 5707 5706 5704 5702 5700 5698 5695 5693 5690 5688 5685 5682 5680 5677 5674 5672 5669 5666 5663 5660 5657 5654 5651 5648 5644 5641 5638 5634 5631 5628 5624 5620 5615 5612 5609 5605 5601 5598 5594 5590 5585 5581 5576 5572 5567 5563 5558 5553 5548 5544 5540 5536 5532 5529
5733 5732 5732 5732 5732 5732 5730 5730 5731 5731 5730 5729 5729 5728 5727 5726 5725 5724 5723 5722 5720 5719 5717 5716 5714 5712 5711 5709 5707 5705 5703 5702 5700 5698 5696 5694 5691 5689 5687 5684 5681 5679 5676 5673 5670 5668 5665 5662 5659 5655 5652 5649 5646 5643 5640 5637 5633 5630 5627 5623 5620 5616 5612 5608 5605 5601 5597 5593 5589 5585 5581 5577 5573 5569 5564 5559 5555 5551 5546 5541 5536 5532 5529 5525 5521
5728 5727 5727 5727 5727 5725 5724 5725 5725 5725 5724 5723 5723 5722 5721 5720 5718 5717 5716 5715 5714 5713 5711 5710 5708 5706 5705 5703 5701 5699 5697 5696 5694 5692 5690 5687 5685 5683 5680 5678 5675 5673 5670 5667 5664 5661 5658 5654 5651 5648 5645 5642 5638 5635 5632 5629 5626 5622 5619 5616 5612 5609 5605 5600 5597 5593 5589 5585 5581 5577 5573 5569 5565 5560 5556 5551 5547 5544 5539 5534 5529 5525 5521 5518 5514
5722 5722 5721 5721 5720 5719 5719 5719 5719 5718 5718 5717 5716 5715 5714 5713 5712 5711 5710 5709 5708 5707 5705 5703 5702 5700 5698 5696 5694 5692 5690 5689 5687 5685 5683 5681 5679 5677 5674 5672 5669 5666 5663 5661 5658 5654 5651 5648 5644 5641 5638 5634 5631 5628 5625 5622 5618 5615 5611 5608 5605 5601 5597 5593 5589 5585 5581 5577 5573 5569 5565 5560 5556 5552 5547 5542 5538 5534 5531 5528 5524 5519 5514 5510 5506
5716 5715 5715 5714 5713 5712 5712 5712 5712 5711 5711 5710 5709 5708 5708 5706 5705 5705 5704 5703 5702 5700 5699 5697 5695 5693 5691 5689 5687 5686 5684 5682 5680 5678 5676 5674 5672 5670 5667 5664 5662 5659 5656 5654 5651 5648 5644 5641 5638 5634 5631 5627 5624 5620 5617 5614 5611 5607 5603 5600 5597 5593 5589 5585 5581 5576 5572 5568 5565 5561 5556 5552 5547 5542 5538 5534 5529 5525 5522 5520 5517 5513 5509 5504 5499
5708 5708 5707 5707 5706 5706 5705 5705 5705 5704 5704 5703 5702 5702 5701 5700 5699 5698 5697 5696 5695 5694 5692 5691 5688 5686 5684 5682 5681 5679 5677 5675 5673 5671 5669 5667 5665 5663 5660 5658 5655 5652 5649 5646 5643 5640 5637 5634 5630 5627 5624 5620 5617 5613 5609 5606 5603 5599 5595 5592 5588 5585 5581 5577 5573 5568 5564 5560 5556 5552 5547 5542 5538 5534 5530 5526 5522 5518 5514 5511 5509 5506 5501 5496 5491
5700 5700 5700 5699 5699 5699 5699 5698 5698 5697 5697 5696 5695 5695 5694 5693 5692 5691 5690 5689 5688 5687 5686 5684 5681 5679 5677 5675 5673 5672 5670 5668 5665 5663 5661 5659 5657 5655 5653 5650 5647 5644 5641 5638 5635 5632 5629 5626 5622 5619 5616 5612 5609 5605 5601 5598 5594 5591 5587 5584 5580 5576 5572 5568 5564 5560 5556 5551 5547 5543 5538 5533 5529 5525 5522 5518 5514 5510 5506 5502 5500 5497 5493 5488 5483
5694 5693 5693 5692 5692 5692 5691 5691 5690 5690 5689 5688 5688 5687 5687 5686 5685 5684 5683 5682 5681 5680 5678 5676 5674 5672 5670 5668 5666 5664 5663 5660 5658 5656 5654 5651 5649 5647 5645 5642 5639 5636 5633 5630 5626 5623 5620 5617 5613 5610 5607 5604 5600 5597 5593 5589 5586 5582 5579 5575 5572 5567 5563 5559 5555 5551 5547 5542 5538 5534 5529 5525 5521 5517 5513 5509 5506 5502 5498 5494 5490 5487 5483 5479 5475
5687 5686 5686 5685 5685 5684 5684 5683 5683 5682 5682 5681 5681 5680 5680 5679 5678 5677 5676 5675 5674 5672 5670 5668 5666 5665 5663 5661 5659 5657 5655 5653 5651 5649 5646 5644 5641 5639 5636 5633 5631 5628 5624 5621 5617 5615 5612 5608 5605 5602 5598 5595 5592 5588 5584 5580 5577 5573 5569 5566 5563 5558 5553 5549 5545 5541 5537 5533 5529 5525 5521 5517 5512 5508 5504 5501 5497 5493 5489 5485 5481 5477 5473 5469 5465
5678 5679 5679 5678 5678 5677 5677 5676 5676 5675 5674 5674 5674 5673 5673 5672 5671 5670 5669 5667 5666 5664 5662 5660 5658 5657 5655 5653 5651 5650 5648 5646 5643 5641 5638 5635 5632 5630 5627 5624 5622 5619 5616 5612 5609 5606 5603 5599 5596 5593 5590 5586 5583 5579 5575 5572 5568 5564 5560 5556 5553 5549 5545 5540 5536 5532 5528 5524 5520 5517 5513 5508 5504 5500 5495 5492 5488 5484 5479 5475 5471 5467 5463 5459 5456
5670 5670 5670 5670 5670 5669 5669 5669 5668 5668 5667 5667 5666 5666 5665 5664 5663 5662 5661 5659 5657 5656 5654 5652 5650 5648 5647 5645 5643 5641 5639 5637 5635 5632 5629 5627 5623 5620 5618 5615 5613 5610 5607 5604 5600 5597 5594 5591 5588 5585 5582 5578 5574 5570 5567 5563 5559 5555 5551 5547 5543 5540 5537 5532 5528 5524 5519 5515 5512 5508 5504 5500 5496 5491 5487 5483 5479 5475 5470 5465 5461 5457 5453 5449 5446
5662 5661 5661 5662 5661 5661 5661 5661 5660 5660 5660 5659 5659 5658 5657 5656 5655 5654 5652 5651 5649 5647 5645 5643 5641 5640 5638 5636 5634 5633 5630 5628 5626 5623 5620 5617 5614 5611 5609 5606 5604 5601 5598 5595 5592 5589 5586 5583 5579 5576 5574 5570 5566 5562 5558 5555 5550 5546 5542 5538 5534 5531 5527 5524 5520 5515 5511 5507 5504 5500 5495 5491 5487 5483 5478 5474 5470 5466 5461 5456 5451 5447 5442 5438 5435
5654 5654 5654 5654 5653 5654 5654 5653 5653 5653 5652 5651 5651 5650 5649 5648 5647 5645 5643 5642 5640 5638 5637 5635 5633 5631 5629 5627 5625 5624 5621 5619 5616 5613 5611 5608 5605 5602 5600 5597 5595 5592 5589 5586 5583 5580 5577 5574 5570 5568 5565 5561 5557 5553 5549 5546 5542 5538 5534 5530 5526 5521 5517 5513 5509 5506 5502 5499 5495 5491 5486 5483 5479 5474 5470 5466 5461 5456 5451 5446 5441 5435 5431 5427 5423
5647 5647 5647 5647 5647 5647 5646 5646 5645 5645 5644 5643 5643 5642 5641 5639 5638 5636 5635 5633 5631 5630 5628 5626 5624 5622 5621 5618 5616 5614 5612 5610 5607 5604 5601 5599 5596 5593 5591 5588 5586 5583 5580 5577 5574 5571 5569 5565 5561 5558 5555 5551 5548 5544 5541 5537 5533 5529 5525 5520 5515 5511 5506 5502 5498 5495 5492 5489 5485 5482 5478 5474 5470 5465 5460 5456 5451 5446 5440 5434 5428 5423 5418 5413 5409
5640 5640 5640 5639 5640 5639 5639 5638 5638 5637 5636 5636 5634 5633 5632 5630 5629 5627 5626 5624 5623 5621 5619 5618 5615 5614 5612 5610 5607 5605 5603 5601 5598 5596 5593 5590 5587 5585 5582 5579 5577 5574 5571 5569 5566 5562 5560 5556 5552 5549 5546 5542 5538 5535 5531 5527 5523 5519 5515 5511 5506 5501 5496 5492 5488 5485 5482 5479 5476 5472 5468 5464 5459 5454 5449 5444 5439 5433 5427 5421 5415 5409 5404 5398 5394
5633 5633 5633 5632 5632 5632 5631 5631 5630 5629 5628 5627 5626 5625 5623 5621 5620 5618 5617 5616 5614 5613 5611 5609 5607 5605 5603 5601 5599 5596 5594 5592 5589 5587 5584 5581 5578 5576 5573 5570 5568 5565 5563 5560 5557 5553 5550 5546 5543 5539 5536 5533 5529 5526 5521 5517 5512 5508 5505 5501 5497 5492 5488 5483 5480 5476 5473 5469 5466 5461 5457 5452 5447 5442 5436 5431 5425 5420 5414 5408 5401 5395 5389 5384 5379
5626 5626 5625 5625 5625 5624 5624 5623 5622 5621 5620 5619 5617 5616 5614 5613 5612 5610 5609 5608 5606 5604 5603 5601 5598 5596 5594 5592 5590 5588 5585 5583 5580 5577 5575 5572 5569 5567 5564 5561 5558 5556 5553 5551 5547 5544 5540 5537 5533 5530 5526 5523 5519 5516 5511 5507 5502 5498 5495 5492 5488 5484 5479 5475 5471 5467 5463 5458 5454 5449 5444 5438 5433 5428 5423 5418 5412 5406 5400 5394 5387 5381 5375 5369 5364
5618 5618 5617 5617 5617 5616 5615 5614 5613 5612 5611 5610 5609 5607 5606 5605 5603 5602 5601 5599 5597 5595 5594 5591 5589 5587 5585 5583 5581 5578 5576 5574 5571 5568 5566 5563 5560 5557 5554 5551 5549 5546 5543 5541 5538 5534 5531 5528 5524 5520 5517 5514 5510 5506 5502 5497 5493 5489 5486 5482 5479 5475 5470 5465 5460 5456 5451 5447 5442 5437 5431 5425 5420 5414 5409 5404 5399 5392 5386 5380 5373 5367 5361 5355 5349
5609 5608 5608 5608 5607 5606 5606 5605 5604 5603 5602 5601 5600 5599 5597 5596 5594 5593 5592 5590 5588 5586 5584 5582 5580 5578 5576 5574 5571 5569 5566 5564 5561 5559 5557 5554 5550 5548 5545 5541 5538 5535 5532 5530 5527 5524 5521 5518 5515 5512 5508 5505 5501 5497 5493 5488 5484 5480 5476 5472 5469 5465 5460 5455 5449 5444 5440 5435 5430 5424 5419 5413 5406 5400 5395 5390 5385 5378 5372 5366 5359 5353 5347 5341 5335
5599 5599 5599 5598 5597 5597 5596 5596 5595 5594 5593 5592 5591 5589 5588 5587 5585 5583 5582 5580 5578 5577 5574 5572 5570 5568 5566 5564 5561 5559 5557 5554 5551 5549 5546 5543 5541 5538 5535 5532 5529 5525 5522 5519 5516 5514 5511 5507 5504 5501 5498 5495 5491 5487 5483 5479 5475 5471 5467 5462 5458 5453 5448 5443 5438 5432 5427 5423 5418 5412 5406 5400 5393 5386 5380 5376 5370 5364 5357 5351 5345 5339 5333 5327 5321
5589 5589 5589 5588 5588 5588 5587 5586 5585 5584 5583 5582 5581 5579 5578 5577 5575 5574 5572 5570 5569 5567 5564 5562 5560 5558 5556 5553 5551 5549 5546 5543 5541 5539 5536 5533 5531 5528 5525 5522 5519 5515 5512 5509 5506 5504 5500 5497 5494 5490 5487 5484 5480 5476 5472 5468 5464 5460 5456 5452 5447 5442 5436 5431 5426 5420 5414 5410 5405 5399 5393 5387 5380 5373 5367 5361 5356 5350 5343 5337 5331 5325 5320 5313 5307
5579 5579 5579 5578 5578 5577 5576 5576 5575 5574 5573 5572 5570 5569 5568 5566 5565 5563 5562 5560 5559 5557 5554 5552 5550 5547 5545 5542 5540 5538 5536 5533 5530 5528 5526 5523 5521 5518 5515 5512 5509 5505 5502 5499 5496 5493 5490 5486 5483 5480 5476 5472 5468 5464 5460 5457 5453 5449 5445 5440 5435 5430 5425 5419 5414 5408 5402 5397 5391 5386 5380 5373 5367 5360 5354 5348 5341 5335 5330 5324 5318 5312 5307 5301 5295
5570 5569 5568 5568 5567 5567 5566 5565 5565 5563 5562 5561 5560 5559 5557 5556 5554 5553 5551 5550 5548 5546 5544 5542 5539 5537 5535 5532 5529 5527 5525 5522 5520 5518 5515 5513 5510 5507 5504 5502 5498 5495 5492 5489 5486 5483 5479 5476 5472 5469 5464 5461 5456 5452 5449 5445 5441 5437 5432 5427 5422 5418 5412 5406 5401 5395 5390 5384 5378 5372 5366 5359 5353 5346 5340 5334 5327 5321 5316 5311 5305 5300 5294 5289 5285
5560 5559 5558 5558 5557 5556 5556 5555 5554 5554 5552 5551 5550 5548 5547 5545 5544 5543 5541 5539 5537 5535 5533 5531 5529 5527 5524 5522 5519 5517 5515 5512 5510 5508 5505 5502 5499 5496 5494 5491 5488 5485 5482 5479 5476 5472 5469 5465 5461 5457 5453 5449 5445 5441 5437 5433 5428 5424 5420 5414 5409 5404 5399 5393 5387 5382 5377 5371 5365 5358 5352 5345 5338 5332 5326 5320 5314 5309 5303 5298 5293 5288 5284 5279 5275
5550 5550 5549 5548 5547 5547 5546 5545 5544 5543 5542 5541 5540 5539 5537 5536 5534 5532 5530 5529 5527 5525 5522 5520 5518 5516 5514 5511 5509 5507 5505 5502 5500 5497 5494 5491 5488 5486 5483 5480 5478 5475 5471 5468 5465 5462 5458 5454 5450 5445 5441 5437 5432 5428 5424 5420 5415 5411 5406 5402 5397 5391 5386 5380 5374 5368 5363 5357 5350 5344 5337 5331 5325 5319 5313 5308 5302 5297 5292 5287 5283 5279 5275 5271 5267
5542 5541 5540 5539 5538 5537 5536 5535 5534 5533 5532 5531 5530 5528 5527 5525 5523 5521 5520 5518 5515 5514 5511 5509 5507 5505 5503 5501 5499 5497 5494 5492 5489 5486 5484 5481 5478 5476 5473 5470 5467 5464 5460 5457 5454 5450 5447 5443 5439 5434 5429 5424 5420 5416 5411 5406 5402 5398 5393 5388 5383 5377 5372 5366 5360 5353 5348 5342 5336 5330 5324 5318 5312 5306 5301 5296 5291 5286 5282 5278 5274 5270 5267 5264 5261
5532 5531 5530 5529 5528 5527 5525 5525 5524 5522 5521 5520 5518 5517 5515 5514 5511 5510 5508 5506 5504 5503 5501 5498 5496 5495 5493 5491 5489 5487 5484 5482 5479 5477 5474 5472 5469 5466 5463 5460 5456 5453 5449 5446 5442 5439 5435 5431 5427 5422 5417 5412 5407 5403 5398 5393 5389 5385 5380 5375 5370 5364 5357 5351 5345 5339 5333 5328 5322 5317 5311 5305 5300 5295 5290 5285 5281 5277 5274 5270 5266 5264 5261 5258 5256
5522 5521 5519 5518 5517 5516 5514 5513 5512 5511 5510 5508 5507 5505 5504 5502 5500 5499 5497 5495 5493 5491 5489 5488 5486 5484 5483 5481 5479 5476 5474 5472 5469 5467 5464 5462 5459 5456 5453 5449 5446 5442 5438 5434 5430 5427 5423 5419 5415 5410 5405 5400 5395 5390 5385 5380 5375 5370 5365 5360 5355 5349 5343 5337 5331 5325 5319 5314 5309 5304 5299 5294 5289 5284 5280 5276 5273 5269 5266 5263 5260 5258 5256 5253 5251
5511 5510 5509 5507 5506 5505 5503 5502 5501 5499 5498 5496 5495 5494 5492 5490 5489 5487 5485 5484 5482 5481 5479 5478 5476 5474 5472 5470 5468 5466 5464 5461 5459 5457 5454 5451 5448 5445 5442 5438 5435 5431 5426 5423 5419 5415 5411 5407 5403 5398 5393 5388 5382 5377 5372 5367 5362 5356 5350 5345 5339 5334 5328 5322 5317 5312 5307 5302 5298 5293 5289 5284 5280 5276 5272 5269 5266 5263 5261 5258 5255 5253 5251 5248 5246
5499 5499 5497 5496 5495 5493 5492 5490 5489 5488 5486 5485 5484 5482 5481 5479 5478 5476 5475 5474 5472 5471 5469 5468 5466 5464 5462 5459 5457 5455 5453 5450 5448 5445 5443 5440 5437 5434 5431 5427 5423 5419 5415 5411 5407 5403 5399 5395 5391 5386 5381 5375 5370 5365 5359 5354 5348 5342 5337 5331 5325 5319 5314 5309 5304 5299 5295 5291 5287 5283 5279 5276 5272 5269 5266 5263 5260 5258 5256 5253 5251 5248 5246 5243 5241
5488 5487 5485 5484 5483 5481 5480 5479 5478 5476 5475 5474 5473 5471 5470 5469 5467 5466 5465 5464 5462 5461 5459 5457 5455 5453 5451 5448 5446 5444 5441 5439 5436 5433 5431 5428 5425 5422 5419 5415 5412 5407 5403 5398 5394 5391 5387 5383 5378 5373 5368 5362 5357 5352 5346 5341 5335 5329 5323 5317 5312 5306 5301 5297 5292 5288 5284 5280 5277 5274 5270 5268 5265 5262 5260 5257 5255 5253 5251 5248 5246 5243 5241 5238 5236
5475 5474 5473 5472 5471 5470 5469 5468 5467 5465 5464 5463 5461 5460 5459 5458 5457 5456 5455 5453 5452 5450 5448 5446 5444 5442 5439 5437 5435 5432 5429 5427 5424 5422 5419 5417 5414 5410 5407 5404 5400 5396 5391 5387 5382 5378 5374 5370 5365 5360 5355 5349 5344 5339 5333 5328 5322 5316 5310 5305 5299 5294 5290 5286 5282 5278 5275 5272 5268 5265 5263 5261 5258 5256 5254 5252 5249 5247 5245 5243 5241 5238 5236 5233 5231
5463 5462 5461 5460 5459 5458 5457 5456 5455 5454 5452 5451 5450 5450 5449 5447 5446 5445 5444 5442 5441 5439 5436 5434 5432 5430 5428 5425 5423 5420 5417 5415 5412 5410 5408 5405 5402 5399 5395 5392 5388 5384 5380 5375 5370 5366 5361 5357 5352 5347 5342 5336 5331 5326 5321 5315 5309 5303 5298 5293 5288 5284 5280 5276 5273 5270 5267 5264 5261 5259 5256 5254 5252 5250 5248 5246 5244 5242 5240 5238 5235 5233 5231 5228 5226
5451 5450 5449 5448 5447 5446 5445 5444 5443 5442 5441 5440 5440 5439 5438 5437 5435 5434 5432 5431 5429 5427 5425 5423 5421 5418 5416 5413 5410 5408 5405 5403 5401 5398 5396 5393 5389 5386 5383 5380 5376 5372 5367 5362 5358 5353 5349 5345 5340 5335 5329 5324 5319 5313 5308 5302 5296 5291 5287 5282 5278 5274 5271 5268 5265 5262 5259 5257 5255 5252 5250 5248 5246 5244 5242 5240 5238 5236 5234 5232 5230 5228 5225 5223 5221